{"data":{"norad_id":59081,"intl_designator":"2024-041H","name":"STARLINK-31292","alt_names":[],"object_type":"PAYLOAD","status":"ACTIVE","operator":null,"country":"US","launch_date":"2024-02-29","launch_site_code":"AFETR","launch_vehicle":null,"mission":null,"orbit_class":"UNKNOWN","rcs_meters":null,"size_class":null,"mass_kg":null,"dimensions":null,"purposes":["comms"],"wikipedia_slug":null,"has_3d_model":false,"image_url":null,"decayed_at":null,"tle_current":{"epoch":"2026-09-20T19:07:21.871488Z","epoch_age_seconds":130109,"freshness":"FRESH","line1":"1 59081U 24041H   26263.79678092  .00001082  00000+0  48860-4 0  9991","line2":"2 59081  43.0045 288.5869 0001544 281.2691  78.7988 15.27577622144101","mean_motion":15.27577622,"eccentricity":0.0001544,"inclination_deg":43.0045,"raan_deg":288.5869,"arg_perigee_deg":281.2691,"mean_anomaly_deg":78.7988,"bstar":4.886e-5,"rev_number":14410,"period_min":94.266895459928,"perigee_km":481.99684840372,"apogee_km":484.11558486902,"semimajor_km":6861.1932166364,"source":"CELESTRAK","updated_at":"2026-09-21T09:00:34.034745Z"}}}